DW7780 Weather Reports


time (UTC)temp
F
wind
direction
speed
knots
gust
knots
rain 1hr
in
rain 24hr
in
rain mn
in
humidity
%
barometer
mb
20260507130038 50 0 0.0 0.0 0.00 0.50 0.35 91 1011.7
20260507124526 49 0 0.0 3.5 0.00 0.50 0.35 93 1012.0
20260507123030 49 0 0.0 5.2 0.00 0.50 0.35 95 1011.9
20260507121530 50 0 0.0 0.0 0.00 0.50 0.35 96 1011.9
20260507120030 50 0 0.0 0.0 0.00 0.50 0.35 96 1011.9
20260507114531 49 0 0.0 0.0 0.00 0.50 0.35 96 1011.8
20260507113026 49 0 0.0 0.0 0.00 0.50 0.35 96 1011.7
20260507111530 49 0 0.0 0.0 0.00 0.50 0.35 96 1011.3
20260507110030 49 0 0.0 0.0 0.00 0.50 0.35 95 1011.1
20260507104527 49 0 0.0 0.0 0.00 0.50 0.35 96 1010.9
20260507103027 49 0 0.0 0.0 0.00 0.50 0.35 95 1010.7
20260507101525 48 0 0.0 0.0 0.00 0.50 0.35 95 1010.3
20260507100036 48 0 0.0 0.0 0.00 0.50 0.35 95 1010.4
20260507094528 48 0 0.0 0.0 0.00 0.50 0.35 94 1010.3
20260507093028 48 0 0.0 0.0 0.00 0.50 0.35 94 1010.1
20260507091534 48 0 0.0 0.0 0.00 0.50 0.35 95 1010.0
20260507090028 48 0 0.0 0.0 0.00 0.50 0.35 94 1010.0
20260507084530 48 0 0.0 0.0 0.01 0.50 0.35 94 1010.1
20260507083028 48 0 0.0 0.0 0.03 0.50 0.35 93 1010.0
20260507081530 48 0 0.0 0.0 0.05 0.50 0.35 93 1010.1
20260507080028 48 0 0.0 0.0 0.06 0.50 0.35 93 1010.1
20260507074528 49 0 0.0 0.0 0.08 0.49 0.34 92 1010.6
20260507073031 49 0 0.0 0.0 0.06 0.47 0.32 91 1010.6
20260507071533 49 0 0.0 0.9 0.08 0.45 0.30 91 1010.4
20260507070033 50 0 0.0 0.0 0.10 0.44 0.29 91 1010.5
20260507064550 50 0 0.0 0.0 0.13 0.41 0.26 91 1010.6
20260507063033 51 0 0.0 0.0 0.16 0.41 0.26 91 1010.6
20260507061530 51 0 0.0 0.0 0.18 0.37 0.22 91 1010.4
20260507060030 52 0 0.0 0.0 0.17 0.34 0.19 90 1010.0
20260507054527 52 0 0.0 0.0 0.13 0.28 0.13 90 1010.3
20260507053030 53 0 0.0 0.0 0.10 0.25 0.10 89 1010.0
20260507051528 54 0 0.0 0.0 0.03 0.18 0.03 87 1010.0
20260507050039 55 0 0.0 2.6 0.02 0.17 0.02 85 1009.3
20260507044528 56 0 0.0 0.0 0.00 0.15 0.00 84 1009.5
20260507043030 56 0 0.0 0.0 0.00 0.15 0.00 85 1008.7
20260507041529 56 0 0.0 4.3 0.00 0.15 0.00 83 1009.1
20260507040030 57 308 0.0 6.1 0.00 0.15 0.00 82 1009.3
20260507034530 57 0 0.0 5.2 0.00 0.15 0.15 83 1009.3
20260507033028 57 0 0.0 0.0 0.00 0.15 0.15 84 1009.0
20260507031533 58 0 0.0 1.7 0.00 0.15 0.15 84 1009.0
20260507030035 59 0 0.0 7.0 0.00 0.15 0.15 84 1008.9
20260507024529 60 0 0.0 5.2 0.01 0.15 0.15 86 1008.7
20260507023026 62 0 0.0 7.0 0.02 0.15 0.15 87 1008.6
20260507021527 63 0 0.0 0.0 0.02 0.15 0.15 90 1008.5
20260507020029 64 0 0.0 0.0 0.01 0.14 0.14 89 1008.6
20260507014529 64 0 0.0 0.0 0.01 0.14 0.14 87 1008.6
20260507013028 65 0 0.0 0.0 0.00 0.13 0.13 84 1008.2
20260507011531 65 0 0.0 0.0 0.00 0.13 0.13 84 1008.0
20260507010043 65 0 0.0 0.0 0.00 0.13 0.13 84 1008.1
20260507004533 65 0 0.0 0.0 0.00 0.13 0.13 84 1007.8
20260507003029 65 0 0.0 0.9 0.00 0.13 0.13 85 1007.4
20260507001527 65 0 0.0 0.0 0.00 0.13 0.13 84 1007.5
20260507000028 66 0 0.0 0.0 0.00 0.13 0.13 83 1007.4
20260506234531 66 0 0.0 0.0 0.00 0.13 0.13 81 1007.4
20260506233030 67 0 0.0 2.6 0.00 0.13 0.13 80 1007.3
20260506231608 67 0 0.0 4.3 0.00 0.13 0.13 79 1007.4
20260506230029 67 0 0.0 0.0 0.00 0.13 0.13 80 1007.2
20260506224536 68 0 0.0 5.2 0.00 0.13 0.13 78 1007.2
20260506223030 67 194 0.0 6.1 0.00 0.13 0.13 79 1006.8
20260506221528 67 279 1.7 7.8 0.00 0.13 0.13 79 1007.1
20260506220035 67 259 1.7 7.8 0.00 0.13 0.13 80 1007.0
20260506214529 66 0 0.9 7.0 0.00 0.13 0.13 80 1006.9
20260506213030 66 0 0.0 7.0 0.00 0.13 0.13 81 1006.8
20260506211533 66 0 0.0 5.2 0.00 0.13 0.13 81 1006.8
20260506210031 66 274 0.9 6.1 0.00 0.13 0.13 81 1006.8
20260506204534 65 0 0.0 8.7 0.00 0.13 0.13 83 1006.7
20260506203031 64 246 0.9 6.1 0.00 0.13 0.13 84 1006.7
20260506201537 64 164 0.9 6.1 0.00 0.13 0.13 85 1006.7
20260506200030 63 0 0.0 3.5 0.00 0.13 0.13 85 1006.8
20260506194528 63 0 0.0 5.2 0.00 0.13 0.13 87 1006.9
20260506193027 62 0 0.0 8.7 0.00 0.13 0.13 87 1007.2
20260506191526 62 0 0.9 7.0 0.00 0.13 0.13 88 1007.3
20260506190029 62 0 0.0 7.0 0.00 0.13 0.13 89 1007.3
20260506184532 62 0 0.0 6.1 0.00 0.13 0.13 88 1007.5
20260506183032 62 0 0.0 8.7 0.00 0.13 0.13 88 1007.5
20260506181527 61 0 0.0 4.3 0.00 0.13 0.13 89 1007.5
20260506180032 61 0 0.0 7.0 0.00 0.13 0.13 89 1007.7
20260506174533 62 319 0.9 8.7 0.01 0.13 0.13 89 1007.8
20260506173030 62 0 0.0 6.1 0.01 0.13 0.13 89 1008.0
20260506171538 62 0 0.0 5.2 0.02 0.13 0.13 90 1007.9
20260506170029 63 0 0.0 1.7 0.04 0.13 0.13 91 1007.8
20260506164526 62 0 0.0 0.0 0.05 0.12 0.12 92 1008.1
20260506163030 61 0 0.0 2.6 0.08 0.12 0.12 90 1008.0
20260506161533 62 0 0.0 2.6 0.09 0.11 0.11 90 1008.9
20260506160030 62 0 0.0 0.0 0.08 0.09 0.09 88 1009.3
20260506154529 62 0 0.0 2.6 0.06 0.06 0.06 86 1009.3
20260506153027 63 0 0.0 0.0 0.04 0.04 0.04 85 1009.4
20260506151533 64 0 0.0 0.0 0.02 0.02 0.02 83 1009.3
20260506150028 64 0 0.0 4.3 0.01 0.01 0.01 80 1009.0
20260506144531 66 0 0.0 4.3 0.00 0.00 0.00 76 1009.3
20260506143028 67 0 0.0 7.8 0.00 0.00 0.00 71 1009.4
20260506141528 68 0 0.0 8.7 0.00 0.00 0.00 70 1009.2
20260506140033 68 0 0.9 7.0 0.00 0.00 0.00 71 1009.0
20260506134528 67 0 0.0 12.2 0.00 0.00 0.00 72 1009.0
20260506133031 67 0 0.0 10.4 0.00 0.00 0.00 72 1009.0
20260506131526 66 0 0.9 7.8 0.00 0.00 0.00 73 1009.2